Regional Weather Roundup
Issued by NWS

Home | Current Version | Previous Version | Graphics & Text | Print | Product List | Glossary On
Versions: 1 2 3 4 5 6 7 8 9 10 11 12 13 14 15 16 17 18 19 20 21 22 23 24 25 26 27 28 29 30 31
000
ASUS43 KDMX 300507
RWRIA

WEATHER ROUNDUP FOR IOWA
NATIONAL WEATHER SERVICE DES MOINES IA
1200 AM CDT THU OCT 30 2014

NOTE: "FAIR" INDICATES FEW OR NO CLOUDS BELOW 12,000 FEET WITH NO
SIGNIFICANT WEATHER AND/OR OBSTRUCTIONS TO VISIBILITY.

* - THESE STATIONS ARE NOT NWS STATIONS...THUS NOT UNDER NWS
QUALITY CONTROL.  THEY ALSO DO NOT REPORT WEATHER SUCH
AS PRECIPITATION OR FOG.

IAZ001>003-012>014-020>022-031>034-043>046-300600-
   NORTHWEST IOWA

CITY           SKY/WX    TMP DP  RH WIND       PRES   REMARKS
CARROLL *      PTCLDY    37  32  81 CALM      30.08R
CHEROKEE *     CLOUDY    41  37  87 W5        30.06S
DENISON *      PTCLDY    36  34  93 CALM      30.05F
LE MARS *      CLOUDY    46  36  66 E3        30.04F
ORANGE CITY *  PTCLDY    46  34  61 S5        30.03F
SHELDON *      CLOUDY    43  32  65 S7        30.03S
SIOUX CITY     CLOUDY    44  34  67 SE5       30.04F
SPENCER        MOCLDY    40  34  79 S3        30.05F
STORM LAKE *   CLOUDY    41  34  75 S10       30.06F
$$

IAZ055>058-069>071-079>083-090>094-300600-
   SOUTHWEST IOWA

CITY           SKY/WX    TMP DP  RH WIND       PRES   REMARKS
ATLANTIC *     CLEAR     37  32  81 CALM      30.08S
AUDUBON *      CLEAR     34  28  80 CALM      30.09R
CLARINDA *     CLEAR     36  34  93 CALM      30.09F
COUNCIL BLFS * CLEAR     45  32  61 SE7       30.05F
CRESTON *      CLEAR     39  32  75 SE7       30.09F WCI  34
HARLAN  *      CLEAR     37  34  87 CALM      30.11S
LAMONI         CLEAR     44  33  65 SE7       30.10F
RED OAK *      PTCLDY    43  32  65 CALM      30.08S
SHENANDOAH *   CLEAR     43  34  70 CALM      30.07F
$$

IAZ047>049-059>061-072>074-084-300600-
   CENTRAL IOWA

CITY           SKY/WX    TMP DP  RH WIND       PRES   REMARKS
AMES           PTCLDY    33  31  92 CALM      30.10F
ANKENY *       CLEAR     36  34  93 CALM      30.11F
CHARITON *     MOCLDY    37  34  87 SE6       30.11S WCI  33
DES MOINES     MOCLDY    45  33  63 SE6       30.11F
GRINNELL*      CLEAR     36  32  87 S6        30.12F WCI  31
KNOXVILLE *    CLEAR     41  34  75 SE7       30.10S
MARSHALLTOWN   PTCLDY    35  31  85 S6        30.11S WCI  30
PELLA *        CLEAR     37  33  87 SE3       30.13S
PERRY *          N/A     37  34  87 SE3       30.09F
$$

IAZ004>006-015-016-023>025-035-036-300600-
   NORTH CENTRAL IOWA

CITY           SKY/WX    TMP DP  RH WIND       PRES   REMARKS
ALGONA *       CLEAR     41  34  75 S7        30.07F
CLARION *      CLEAR     39  34  81 SE5       30.08F
ESTHERVILLE    CLOUDY    38  30  73 S6        30.05S WCI  33
FORT DODGE *   MOCLDY    41  30  65 S3        30.08F
MASON CITY     CLOUDY    33  31  92 S5        30.10F WCI  29
FOREST CITY *  CLEAR     36  34  93 CALM      30.08F
IOWA FALLS *     N/A     36  32  87 S5        30.11S WCI  32
$$

IAZ007>011-017>019-026>030-037>042-050>054-066-300600-
   NORTHEAST IOWA

CITY           SKY/WX    TMP DP  RH WIND       PRES   REMARKS
CEDAR RAPIDS   CLEAR     31  30  96 S3        30.13R
CHARLES CITY * PTCLDY    36  32  87 SE6       30.11F WCI  31
CLINTON *      CLEAR     30  27  86 CALM      30.16F
DECORAH *      PTCLDY    36  32  87 CALM      30.10S
DUBUQUE        CLEAR     33  29  85 CALM      30.13S
MONTICELLO *   CLEAR     30  30 100 CALM      30.13S
OELWEIN *      CLEAR     34  30  86 S6        30.12F WCI  29
WATERLOO       PTCLDY    30  28  92 CALM      30.12S
$$

IAZ064-065-067-068-078-300600-
   EAST CENTRAL IOWA

CITY           SKY/WX    TMP DP  RH WIND       PRES   REMARKS
DAVENPORT      CLEAR     33  28  81 CALM      30.14F
IOWA CITY      CLEAR     35  32  88 CALM      30.15S
MT. PLEASANT * CLEAR     34  32  93 CALM      30.15S
MUSCATINE *    CLEAR     34  32  93 CALM      30.15S
QUAD CITIES    CLEAR     33  29  85 CALM      30.14F
$$

IAZ062-063-075>077-085>089-095>099-300600-
   SOUTHEAST IOWA

CITY           SKY/WX    TMP DP  RH WIND       PRES   REMARKS
BURLINGTON     CLEAR     34  32  92 CALM      30.15S
FAIRFIELD *    CLEAR     36  32  87 CALM      30.14F
FORT MADISON * CLEAR     39  36  87 CALM      30.16S
KEOKUK *       CLEAR     39  36  87 CALM      30.15S
OSKALOOSA *      N/A     36  32  87 SE7       30.13F WCI  30
CENTERVILLE *  CLEAR     36  34  93 SE5       30.13F WCI  32
OTTUMWA        CLEAR     34  31  88 SE5       30.12F WCI  30
WASHINGTON *   CLEAR     34  34 100 CALM      30.14S
$$

ABBREVIATIONS USED IN REMARKS
   TC - TEMPERATURES IN CELSIUS
  WCI - WIND CHILL INDEX
   HX - HEAT INDEX
  VSB - VISIBILITY
$$




USA.gov is the U.S. government's official web portal to all federal, state and local government web resources and services.